Hourly Data Report for August 14, 2006

TORONTO CITY
ONTARIO

43°40'00.000" N
79°24'00.000" W
112.50 m
6158355
71508
XTO

Download Data

Hourly Data (August 2006)
Hourly Data Report for August 14, 2006
TIME
LST
Temp Definition
°C
Dew Point Definition
°C
Rel Hum Definition
%
Precip. Amount Definition
mm

Wind Dir Definition
10's deg

Wind Spd Definition
km/h
Visibility Definition
km
Stn Press Definition
kPa
Hmdx Definition


Wind Chill Definition


Weather Definition


00:00 18.8 12.0 65   LegendMM LegendMM   100.14     LegendNANA
01:00 17.8 11.9 68   LegendMM LegendMM   100.05     LegendNANA
02:00 17.0 11.8 71   LegendMM LegendMM   99.99     LegendNANA
03:00 16.3 11.5 73   LegendMM LegendMM   99.98     LegendNANA
04:00 15.7 11.4 76   LegendMM LegendMM   99.94     LegendNANA
05:00 16.4 12.0 75   LegendMM LegendMM   99.90     LegendNANA
06:00 15.5 12.0 80   LegendMM LegendMM   99.88     LegendNANA
07:00 18.9 14.6 76   LegendMM LegendMM   99.82     LegendNANA
08:00 20.2 15.0 72   LegendMM LegendMM   99.78     LegendNANA
09:00 21.2 16.2 73   LegendMM LegendMM   99.68 26   LegendNANA
10:00 21.4 17.0 76   LegendMM LegendMM   99.64 27   LegendNANA
11:00 23.4 17.8 71   LegendMM LegendMM   99.56 29   LegendNANA
12:00 24.5 19.0 71   LegendMM LegendMM   99.46 31   LegendNANA
13:00 23.9 19.1 75   LegendMM LegendMM   99.35 31   LegendNANA
14:00 23.4 19.3 78   LegendMM LegendMM   99.24 30   LegendNANA
15:00 22.6 20.4 87   LegendMM LegendMM   99.20 31   LegendNANA
16:00 21.8 21.1 96   LegendMM LegendMM   99.17 30   LegendNANA
17:00 21.5 21.1 98   LegendMM LegendMM   99.14 30   LegendNANA
18:00 22.4 22.0 98   LegendMM LegendMM   99.12 32   LegendNANA
19:00 22.4 20.7 90   LegendMM LegendMM   99.15 31   LegendNANA
20:00 22.0 20.2 90   LegendMM LegendMM   99.21 30   LegendNANA
21:00 21.5 16.9 75   LegendMM LegendMM   99.32 27   LegendNANA
22:00 20.0 16.2 79   LegendMM LegendMM   99.36 25   LegendNANA
23:00 18.4 15.4 83   LegendMM LegendMM   99.39     LegendNANA

Notes on Data Quality.

Legend

  • E = Estimated
  • M = Missing
  • NA = Not Available*
  • [empty] = Indicates an unobserved value
Date modified: